This is the latest recevied weather packets stored in our database for station/object KB2AHZ. If no packets are shown the sender has not sent any weather packets the latest 10 day(s).
| Time | Temp. | Humidity | Pressure | Rain* | Wind** | Luminosity | Snow |
|---|---|---|---|---|---|---|---|
| 1777310341 | 18.89° C | 51% | 1024.1 hPa | 0 mm | - | 938 W/m² | - |
| 1777310038 | 18.33° C | 49% | 1024.3 hPa | 0 mm | - | 939 W/m² | - |
| 1777309736 | 18.89° C | 50% | 1024.2 hPa | 0 mm | - | 938 W/m² | - |
| 1777309433 | 18.33° C | 50% | 1024.4 hPa | 0 mm | - | 939 W/m² | - |
| 1777309130 | 18.33° C | 49% | 1024.6 hPa | 0 mm | - | 941 W/m² | - |
| 1777308828 | 18.33° C | 47% | 1024.5 hPa | 0 mm | - | 936 W/m² | - |
| 1777308523 | 18.33° C | 48% | 1024.7 hPa | 0 mm | - | 938 W/m² | - |
| 1777308219 | 18.33° C | 54% | 1024.6 hPa | 0 mm | - | 935 W/m² | - |
| 1777307914 | 17.78° C | 50% | 1024.8 hPa | 0 mm | - | 933 W/m² | - |
| 1777307613 | 18.33° C | 51% | 1024.6 hPa | 0 mm | - | 930 W/m² | - |
| 1777307309 | 17.78° C | 50% | 1024.7 hPa | 0 mm | - | 929 W/m² | - |
| 1777307007 | 17.78° C | 52% | 1024.8 hPa | 0 mm | - | 923 W/m² | - |
| 1777306704 | 17.78° C | 52% | 1025 hPa | 0 mm | - | 919 W/m² | - |
| 1777306401 | 16.67° C | 54% | 1024.8 hPa | 0 mm | - | 915 W/m² | - |
| 1777306095 | 16.67° C | 54% | 1024.8 hPa | 0 mm | - | 910 W/m² | - |
| 1777305791 | 17.22° C | 55% | 1024.9 hPa | 0 mm | - | 903 W/m² | - |
| 1777305482 | 16.67° C | 56% | 1025.2 hPa | 0 mm | - | 900 W/m² | - |
| 1777305177 | 16.67° C | 54% | 1025.2 hPa | 0 mm | - | 892 W/m² | - |
| 1777304872 | 16.67° C | 55% | 1025 hPa | 0 mm | - | 881 W/m² | - |
| 1777304569 | 16.11° C | 55% | 1025.1 hPa | 0 mm | - | 876 W/m² | - |
| 1777304266 | 16.11° C | 57% | 1025.4 hPa | 0 mm | - | 866 W/m² | - |
| 1777303963 | 16.67° C | 54% | 1025.2 hPa | 0 mm | - | 857 W/m² | - |
| 1777303660 | 16.67° C | 54% | 1025.3 hPa | 0 mm | - | 851 W/m² | - |
| 1777303358 | 16.11° C | 57% | 1025.1 hPa | 0 mm | - | 842 W/m² | - |
| 1777303055 | 16.11° C | 56% | 1025.2 hPa | 0 mm | - | 832 W/m² | - |
* Rain latest hour (hover to see other rain measurements)
** Current wind speed in m/s (hover to see current wind gust speed)